Temp
-13 -14 -13 -13 -13 -13 -13 -13 -13 -12 -12 -12 -12 -12 -12 -12 -12 -11 -11 -11 -11 -11 -11 -11 -11 -11 -11 -11 -11 -11 -11 -12 -12 -12 -12 -12 -12 -13 -13 -13 -13 -13 -13
-13 -13 -13 -13 -13 -13 -13 -12 -12 -12 -12 -12 -12 -12 -12 -12 -12 -12 -12 -12 -11 -11 -11 -12 -11 -11 -11 -11 -11 -12 -12 -12 -12 -12 -12 -12 -12 -13 -13 -13 -13 -13 -13
-13 -14 -13 -14 -13 -13 -13 -13 -12 -13 -12 -12 -13 -13 -13 -12 -12 -12 -12 -12 -12 -12 -12 -12 -12 -11 -11 -11 -11 -12 -12 -12 -12 -12 -12 -12 -13 -13 -13 -13 -13 -13 -13
-14 -13 -14 -14 -14 -13 -13 -13 -13 -13 -13 -13 -13 -13 -13 -13 -12 -12 -12 -12 -12 -12 -12 -12 -12 -12 -12 -12 -12 -12 -12 -12 -12 -13 -13 -13 -13 -13 -13 -13 -13 -13 -13
-14 -14 -14 -14 -14 -14 -14 -13 -13 -13 -13 -13 -13 -13 -13 -13 -13 -13 -13 -12 -12 -12 -12 -13 -12 -12 -12 -12 -12 -12 -12 -13 -13 -13 -13 -13 -13 -13 -14 -13 -13 -13 -13
-14 -14 -14 -14 -14 -14 -14 -14 -14 -14 -14 -14 -14 -14 -13 -13 -13 -13 -13 -13 -13 -13 -13 -13 -13 -12 -12 -13 -13 -12 -12 -13 -13 -13 -13 -13 -13 -13 -14 -14 -14 -14 -14
-14 -14 -14 -14 -15 -15 -15 -14 -14 -14 -14 -14 -14 -14 -13 -13 -13 -13 -13 -13 -13 -13 -13 -13 -13 -13 -13 -13 -13 -13 -13 -13 -13 -13 -13 -13 -13 -13 -14 -14 -14 -14 -14
-14 -14 -14 -14 -15 -15 -15 -15 -15 -15 -14 -14 -14 -14 -14 -14 -14 -13 -13 -13 -13 -13 -13 -13 -14 -14 -14 -14 -13 -13 -13 -13 -13 -13 -13 -13 -13 -14 -14 -14 -14 -14 -14
-15 -15 -15 -15 -15 -15 -15 -15 -15 -15 -15 -15 -14 -14 -14 -14 -14 -14 -14 -14 -14 -14 -14 -14 -14 -14 -14 -14 -14 -14 -14 -14 -14 -14 -14 -14 -14 -14 -14 -14 -14 -14 -14
-15 -15 -15 -15 -15 -15 -15 -15 -15 -15 -15 -15 -15 -15 -14 -14 -14 -14 -14 -14 -14 -14 -15 -15 -15 -15 -15 -15 -15 -15 -14 -14 -14 -14 -15 -14 -14 -14 -14 -14 -14 -14 -14
-16 -16 -16 -16 -15 -15 -15 -15 -15 -15 -15 -15 -15 -15 -15 -15 -15 -15 -15 -15 -15 -15 -15 -15 -15 -15 -15 -15 -15 -15 -15 -15 -15 -15 -15 -15 -15 -15 -15 -15 -15 -15 -14
-17 -16 -16 -16 -16 -16 -15 -15 -15 -15 -15 -15 -15 -15 -15 -15 -15 -15 -16 -16 -16 -16 -16 -16 -16 -16 -16 -16 -16 -16 -16 -16 -16 -15 -15 -15 -15 -15 -15 -15 -15 -15 -15
-18 -18 -17 -17 -16 -16 -16 -16 -16 -16 -16 -16 -16 -16 -16 -16 -16 -16 -16 -16 -16 -16 -16 -16 -16 -17 -17 -16 -16 -16 -16 -16 -16 -16 -16 -15 -15 -16 -16 -16 -16 -16 -16
-18 -18 -17 -18 -17 -17 -17 -17 -17 -16 -16 -17 -17 -17 -17 -17 -17 -17 -17 -17 -17 -17 -17 -17 -17 -17 -17 -17 -17 -17 -16 -16 -16 -16 -16 -16 -16 -16 -17 -17 -17 -17 -17
-18 -18 -18 -18 -17 -17 -16 -16 -16 -17 -17 -17 -17 -18 -17 -17 -17 -17 -17 -17 -18 -18 -18 -17 -17 -17 -17 -17 -17 -17 -17 -17 -17 -17 -17 -17 -17 -17 -17 -18 -18 -18 -18
-18 -18 -18 -18 -18 -18 -18 -18 -18 -18 -17 -18 -18 -18 -18 -17 -17 -18 -18 -18 -18 -18 -18 -17 -17 -17 -17 -17 -17 -17 -17 -17 -17 -18 -18 -18 -18 -18 -18 -19 -18 -18 -18
-19 -18 -18 -19 -18 -18 -18 -18 -18 -18 -18 -18 -18 -18 -18 -18 -19 -19 -19 -18 -18 -18 -18 -18 -18 -17 -17 -17 -17 -17 -18 -18 -19 -19 -19 -19 -20 -20 -20 -20 -19 -19 -19
-19 -18 -18 -18 -19 -18 -18 -18 -18 -18 -18 -18 -19 -18 -19 -19 -19 -19 -18 -18 -18 -18 -18 -18 -18 -18 -18 -18 -19 -19 -19 -19 -20 -20 -20 -20 -20 -21 -21 -20 -20 -20 -21
-18 -18 -18 -18 -18 -18 -18 -18 -19 -18 -19 -19 -19 -19 -20 -19 -19 -19 -18 -18 -18 -18 -18 -19 -19 -19 -19 -20 -20 -20 -21 -21 -22 -22 -21 -21 -21 -21 -21 -21 -21 -21 -21
-19 -18 -19 -19 -19 -19 -19 -19 -19 -19 -19 -19 -19 -19 -19 -19 -19 -19 -19 -19 -19 -19 -19 -19 -20 -20 -21 -22 -22 -22 -22 -22 -22 -22 -22 -22 -22 -22 -22 -21 -21 -21 -22
-20 -19 -19 -19 -19 -19 -20 -20 -20 -20 -19 -19 -19 -19 -19 -19 -19 -20 -19 -19 -20 -20 -20 -21 -21 -22 -22 -23 -23 -23 -23 -23 -22 -23 -23 -23 -22 -22 -22 -23 -24 -25 -26
-20 -20 -20 -20 -20 -20 -20 -19 -19 -19 -19 -19 -19 -20 -20 -20 -20 -20 -20 -20 -20 -21 -22 -23 -23 -23 -24 -24 -24 -24 -23 -23 -23 -23 -23 -23 -23 -24 -26 -27 -28 -29 -29
-21 -21 -21 -21 -21 -21 -21 -20 -20 -20 -20 -20 -20 -21 -21 -21 -21 -21 -21 -21 -22 -23 -24 -24 -24 -24 -24 -24 -24 -24 -24 -24 -24 -23 -24 -25 -26 -28 -29 -29 -29 -30 -30
-21 -21 -21 -21 -21 -21 -21 -21 -22 -22 -22 -22 -22 -22 -22 -22 -21 -22 -23 -23 -24 -24 -25 -25 -25 -25 -24 -24 -24 -24 -24 -24 -24 -25 -27 -28 -29 -29 -30 -30 -31 -31 -31
-21 -21 -22 -22 -23 -22 -22 -23 -23 -23 -23 -22 -22 -22 -22 -23 -23 -24 -24 -24 -25 -25 -25 -25 -25 -25 -25 -25 -25 -25 -25 -25 -27 -28 -29 -29 -30 -30 -31 -32 -32 -32 -32
-22 -22 -22 -22 -22 -22 -23 -23 -23 -23 -23 -23 -23 -23 -23 -24 -25 -25 -25 -25 -26 -26 -25 -25 -25 -25 -25 -25 -25 -26 -26 -28 -29 -29 -30 -30 -31 -31 -32 -32 -33 -33 -33
Height
5771 5775 5782 5787 5791 5795 5798 5801 5804 5807 5809 5811 5814 5816 5817 5818 5819 5819 5819 5819 5818 5816 5814 5813 5812 5810 5808 5806 5804 5802 5800 5798 5796 5794 5792 5789 5786 5784 5783 5781 5779 5778 5777
5762 5768 5775 5781 5785 5787 5791 5795 5797 5800 5803 5805 5808 5810 5810 5811 5812 5812 5813 5812 5811 5809 5808 5807 5805 5803 5802 5800 5798 5796 5794 5792 5790 5788 5785 5783 5782 5779 5777 5776 5774 5772 5771
5753 5759 5765 5772 5777 5781 5784 5787 5790 5793 5796 5799 5800 5801 5802 5804 5804 5805 5806 5805 5804 5803 5801 5800 5798 5797 5796 5794 5792 5790 5787 5785 5783 5781 5779 5777 5776 5774 5771 5769 5768 5766 5764
5747 5750 5757 5761 5767 5771 5774 5779 5783 5786 5788 5790 5792 5793 5795 5796 5797 5798 5798 5797 5796 5795 5794 5793 5791 5790 5789 5788 5785 5783 5781 5779 5776 5774 5772 5770 5768 5766 5764 5762 5759 5758 5756
5737 5741 5748 5753 5757 5761 5766 5770 5774 5778 5780 5782 5784 5785 5787 5788 5789 5790 5790 5789 5788 5787 5786 5785 5784 5783 5781 5780 5778 5776 5773 5771 5769 5767 5765 5763 5761 5759 5756 5754 5752 5749 5747
5727 5733 5739 5744 5749 5752 5758 5762 5766 5769 5771 5773 5775 5777 5778 5780 5781 5781 5781 5780 5779 5778 5777 5776 5775 5774 5773 5771 5769 5767 5765 5762 5760 5758 5756 5754 5752 5750 5748 5745 5742 5739 5736
5714 5723 5730 5736 5738 5744 5749 5753 5757 5759 5762 5764 5766 5768 5769 5771 5771 5771 5771 5771 5770 5769 5768 5767 5766 5764 5763 5761 5759 5758 5755 5753 5750 5748 5746 5744 5741 5739 5737 5735 5733 5730 5726
5704 5711 5719 5725 5729 5734 5739 5743 5747 5749 5752 5754 5756 5758 5759 5760 5761 5761 5761 5760 5759 5759 5758 5757 5756 5754 5752 5750 5749 5747 5745 5742 5739 5737 5734 5732 5730 5727 5725 5722 5720 5719 5716
5693 5699 5705 5713 5718 5724 5728 5732 5735 5739 5741 5744 5746 5747 5749 5750 5750 5750 5749 5749 5749 5748 5747 5746 5744 5743 5741 5739 5737 5736 5733 5730 5727 5725 5722 5719 5716 5714 5711 5708 5705 5703 5702
5680 5687 5694 5699 5705 5711 5716 5720 5724 5726 5729 5732 5734 5736 5737 5738 5738 5738 5738 5738 5738 5737 5735 5734 5732 5731 5729 5727 5725 5723 5720 5718 5715 5711 5709 5705 5702 5699 5696 5692 5689 5686 5684
5666 5674 5682 5688 5694 5699 5704 5708 5711 5714 5717 5720 5723 5724 5726 5726 5727 5727 5727 5727 5726 5725 5723 5722 5720 5719 5717 5715 5713 5710 5707 5704 5701 5698 5694 5690 5686 5683 5680 5676 5673 5669 5666
5654 5662 5668 5675 5681 5686 5691 5695 5698 5702 5706 5708 5710 5712 5713 5714 5715 5715 5715 5715 5714 5713 5711 5710 5708 5707 5705 5702 5700 5697 5693 5690 5686 5682 5679 5675 5670 5666 5663 5659 5655 5651 5647
5643 5649 5656 5662 5668 5674 5679 5683 5687 5690 5694 5696 5698 5700 5701 5702 5702 5703 5703 5702 5702 5700 5699 5697 5696 5694 5692 5689 5686 5682 5679 5675 5670 5666 5662 5657 5653 5648 5644 5640 5636 5633 5629
5635 5641 5647 5652 5657 5662 5668 5671 5675 5679 5682 5684 5687 5688 5689 5690 5691 5691 5691 5690 5689 5687 5686 5684 5682 5680 5678 5675 5671 5667 5662 5658 5653 5648 5644 5639 5635 5630 5626 5621 5617 5613 5609
5625 5627 5635 5641 5645 5650 5655 5659 5661 5666 5670 5671 5674 5676 5678 5678 5679 5678 5678 5677 5676 5674 5673 5671 5669 5666 5663 5659 5655 5650 5645 5641 5635 5629 5625 5620 5615 5610 5606 5602 5598 5593 5589
5618 5621 5627 5633 5637 5641 5645 5647 5651 5656 5659 5662 5663 5664 5666 5665 5666 5665 5665 5664 5663 5662 5659 5657 5653 5650 5647 5643 5638 5634 5628 5622 5617 5612 5606 5601 5596 5591 5586 5581 5575 5571 5566
5611 5616 5619 5623 5627 5631 5636 5640 5643 5645 5648 5651 5652 5652 5653 5653 5653 5653 5653 5652 5650 5648 5645 5642 5638 5634 5630 5625 5620 5615 5610 5604 5598 5593 5588 5583 5577 5572 5567 5561 5555 5549 5542
5603 5606 5608 5612 5616 5621 5625 5628 5632 5634 5636 5638 5640 5641 5641 5641 5641 5641 5640 5638 5635 5633 5630 5626 5622 5617 5612 5607 5601 5595 5590 5585 5580 5574 5568 5563 5558 5553 5547 5541 5534 5527 5519
5594 5596 5600 5603 5608 5611 5613 5615 5620 5624 5626 5627 5627 5628 5629 5629 5628 5627 5625 5623 5620 5617 5613 5609 5604 5599 5593 5588 5582 5577 5573 5568 5562 5556 5549 5543 5537 5530 5524 5517 5509 5502 5492
5584 5587 5591 5594 5598 5600 5602 5605 5608 5611 5613 5614 5614 5615 5615 5614 5613 5611 5609 5607 5604 5600 5596 5591 5586 5581 5576 5571 5566 5561 5556 5552 5546 5538 5530 5522 5516 5508 5499 5490 5482 5473 5463
5571 5575 5580 5584 5587 5589 5592 5594 5597 5599 5600 5601 5601 5600 5600 5599 5597 5596 5594 5591 5588 5583 5579 5574 5568 5564 5559 5554 5549 5543 5538 5532 5526 5518 5510 5500 5491 5482 5473 5462 5453 5445 5436
5563 5568 5571 5574 5576 5577 5580 5582 5584 5586 5586 5587 5586 5586 5585 5584 5582 5580 5578 5574 5570 5565 5560 5556 5552 5547 5542 5537 5531 5526 5519 5511 5504 5496 5488 5478 5468 5458 5449 5441 5434 5426 5419
5554 5556 5559 5561 5563 5565 5568 5570 5571 5572 5573 5573 5573 5572 5570 5569 5567 5564 5560 5555 5552 5548 5544 5540 5536 5532 5526 5520 5514 5507 5499 5491 5483 5475 5465 5455 5446 5438 5432 5424 5417 5410 5403
5542 5545 5547 5549 5551 5553 5556 5557 5558 5558 5558 5558 5556 5556 5555 5552 5549 5545 5542 5539 5536 5532 5529 5524 5521 5516 5510 5503 5495 5488 5480 5470 5461 5453 5444 5436 5429 5422 5416 5410 5403 5397 5389
5528 5530 5532 5534 5537 5539 5540 5541 5542 5544 5544 5542 5541 5539 5536 5533 5531 5529 5527 5524 5521 5518 5513 5510 5506 5500 5494 5485 5477 5469 5461 5451 5442 5435 5428 5422 5415 5409 5403 5397 5390 5384 5377
5516 5519 5521 5523 5525 5527 5528 5528 5527 5527 5526 5525 5524 5522 5520 5518 5517 5515 5512 5510 5507 5502 5499 5494 5489 5482 5475 5467 5459 5450 5442 5433 5425 5421 5414 5408 5402 5396 5392 5386 5381 5375 5368
Wind_Speed
43 39 35 32 30 31 29 34 34 32 36 36 35 34 32 31 30 33 35 33 33 35 34 30 30 29 28 29 30 31 31 31 31 32 32 30 27 27 27 27 26 26 25
46 42 36 33 32 32 34 33 33 36 36 36 35 34 34 33 33 36 36 35 34 36 35 31 30 30 30 31 32 33 33 33 32 32 32 29 28 28 29 29 29 28 29
54 48 44 38 37 37 36 36 36 37 37 37 36 36 35 36 37 39 37 36 36 38 36 32 31 32 31 32 34 34 34 34 33 34 32 31 31 32 33 33 33 32 31
54 48 52 45 39 38 39 38 38 37 36 36 36 37 38 39 40 40 39 38 39 41 38 34 32 32 33 34 36 39 39 37 36 35 35 34 35 36 36 36 37 36 36
57 48 49 45 38 39 38 40 41 40 39 38 38 39 40 42 42 41 40 41 42 44 40 36 34 35 36 37 40 41 42 41 39 39 38 39 40 40 39 40 40 40 41
60 56 53 52 41 43 42 39 39 39 39 40 40 42 43 43 43 42 43 44 47 46 41 38 38 39 40 42 44 44 45 44 43 42 43 43 43 43 42 41 42 42 43
62 59 57 58 56 47 43 43 43 42 42 41 42 42 43 43 43 45 46 49 50 46 43 42 42 43 45 47 47 47 47 47 47 46 45 46 46 46 46 46 45 44 46
64 60 56 54 53 53 53 52 49 46 45 46 47 47 47 48 49 50 52 51 48 46 46 46 45 46 48 48 49 49 50 50 50 50 49 49 49 50 51 50 50 49 48
64 62 58 55 55 52 54 54 53 53 53 52 51 51 51 51 51 51 51 49 49 49 48 47 48 48 49 50 51 52 52 53 54 54 54 53 53 54 55 55 54 54 53
62 62 59 58 56 56 56 56 55 56 57 56 55 54 54 53 52 51 50 51 50 49 48 49 49 50 51 52 53 53 54 55 56 57 56 56 57 57 58 59 59 60 60
55 58 60 57 58 57 56 56 56 56 55 54 53 54 52 52 52 51 50 50 49 49 49 50 51 51 52 53 55 55 56 58 59 58 59 59 60 61 62 63 64 64 65
46 52 55 54 52 55 56 57 57 56 55 53 52 51 50 50 50 50 50 50 50 50 50 51 52 53 54 56 56 57 58 58 59 60 61 63 64 65 65 66 67 68 69
37 40 47 50 51 54 55 57 56 55 54 53 52 52 52 52 51 50 50 49 50 50 52 53 54 54 55 55 57 58 59 60 62 65 65 66 67 68 68 69 70 71 71
39 42 43 45 46 49 49 50 50 51 50 51 51 51 51 50 49 49 50 50 51 52 52 53 54 55 55 57 59 60 62 65 67 68 68 69 69 70 70 71 71 72 73
43 32 32 37 40 41 47 46 42 44 50 48 48 50 50 48 49 50 51 52 52 52 53 55 56 57 58 60 62 65 68 70 70 70 70 70 70 70 71 71 72 74 75
39 42 46 42 37 41 46 47 48 50 51 53 48 47 52 50 51 51 49 51 53 54 56 57 59 60 61 65 68 70 71 71 70 70 69 69 70 71 72 74 76 78 80
35 37 41 45 46 46 45 46 48 45 46 50 52 46 49 50 48 49 51 53 55 57 58 59 61 64 68 71 72 71 71 70 69 68 68 69 70 72 74 76 78 81 84
40 38 37 50 48 44 47 49 52 48 46 46 47 49 48 48 50 52 55 57 58 59 60 64 67 71 73 71 70 69 69 68 68 69 71 72 72 73 75 77 80 83 85
42 47 39 42 46 47 43 39 40 46 47 46 45 47 49 52 53 56 57 58 60 63 66 69 73 72 68 67 66 67 67 68 68 69 71 73 75 77 79 81 84 87 90
46 46 44 39 37 38 40 42 44 44 44 46 48 51 53 54 55 58 60 62 64 67 72 72 69 66 64 63 64 67 67 69 70 73 74 75 77 79 84 88 91 92 92
38 40 43 42 41 42 45 46 45 45 48 50 51 53 56 58 58 60 62 66 71 72 68 65 63 63 64 66 68 70 72 74 73 73 75 78 82 85 86 85 82 77 72
39 38 38 40 43 47 49 49 50 51 53 55 57 56 57 59 62 66 70 69 66 63 59 60 62 64 67 69 71 73 74 73 74 77 80 82 81 77 71 65 62 62 64
41 42 44 47 49 50 52 54 55 54 53 53 55 58 63 66 67 67 66 63 58 53 57 60 63 65 66 68 71 72 73 75 77 80 80 75 68 61 59 60 60 59 58
42 43 45 47 50 51 51 50 49 52 55 59 63 65 64 65 63 60 55 52 51 53 56 61 62 63 65 70 71 72 75 78 79 77 67 61 58 58 57 55 53 53 53
53 54 54 53 51 51 52 55 58 60 58 59 61 62 60 58 55 51 48 48 52 52 56 59 62 65 68 70 71 74 77 75 67 61 56 55 53 49 48 48 48 48 48
44 44 46 48 51 52 52 55 56 57 59 60 59 56 53 49 46 45 48 49 51 56 59 62 65 67 68 71 74 75 69 61 57 54 51 47 46 45 44 44 44 44 43
Wind_Direction
223 225 223 224 226 232 233 232 238 241 237 237 239 244 252 261 270 277 283 290 301 307 310 314 316 314 308 308 313 315 316 315 316 318 319 313 308 306 307 306 302 301 298
219 225 224 228 227 225 230 230 230 235 234 237 241 247 254 262 271 276 282 289 299 304 307 309 310 309 304 306 310 312 313 313 314 314 313 309 305 302 301 300 297 295 295
217 223 225 225 229 228 227 229 230 230 234 239 244 250 258 265 271 275 281 289 296 302 304 303 304 305 301 303 307 309 311 310 310 310 308 304 302 301 299 297 297 294 291
234 219 228 221 224 229 230 232 233 236 239 243 248 253 259 265 269 274 280 288 294 300 300 299 300 297 297 300 305 306 307 307 306 306 304 300 298 298 298 298 297 296 293
233 226 222 222 223 228 231 233 238 241 244 247 251 255 260 265 269 275 280 287 293 297 296 294 293 293 293 296 301 301 303 304 304 304 302 301 299 297 296 297 297 296 294
233 234 229 222 229 233 235 238 241 245 247 250 253 257 261 266 270 274 280 286 290 292 290 290 290 289 292 294 298 299 300 302 302 302 301 300 299 297 295 294 294 294 293
236 233 233 241 243 244 242 244 244 247 251 254 256 259 263 267 271 276 281 284 286 286 287 288 288 289 291 293 295 296 297 298 300 300 300 299 298 297 296 293 291 290 291
237 238 235 234 237 238 239 239 244 250 253 257 259 262 265 269 272 276 278 279 281 283 285 286 288 289 290 292 293 293 294 295 297 299 299 298 298 297 296 292 290 289 288
234 237 239 233 234 236 237 242 245 249 252 257 262 264 267 270 271 272 274 277 279 281 283 285 287 288 290 291 291 292 293 295 296 297 298 297 296 295 294 293 291 290 287
234 235 235 236 234 235 238 242 245 247 250 253 257 260 262 265 267 270 272 275 277 280 282 284 285 287 288 289 290 291 293 294 295 296 296 295 294 293 292 291 290 289 287
233 233 235 234 236 236 237 240 242 245 249 251 254 257 260 263 265 269 272 274 276 279 280 282 284 286 287 288 290 292 293 293 294 294 295 294 292 291 291 290 289 288 288
229 233 233 231 231 234 236 237 240 243 247 250 253 256 259 263 266 269 271 274 275 278 280 282 284 285 287 289 290 291 292 293 293 293 292 291 291 291 290 289 288 288 287
218 225 229 230 232 232 234 237 239 242 246 250 252 256 260 263 265 269 271 273 276 278 280 282 284 286 287 288 290 290 291 292 292 292 292 292 291 289 289 288 288 287 286
214 219 223 227 230 233 232 236 238 240 242 249 254 257 259 263 264 267 270 273 276 278 281 282 284 285 287 288 289 291 292 293 293 292 291 291 290 289 289 288 287 287 287
226 228 235 237 235 235 233 235 238 245 248 250 255 259 259 262 266 269 271 274 277 278 280 282 283 285 286 289 291 293 293 294 293 292 292 291 290 290 289 288 288 287 287
222 219 226 236 241 238 240 245 246 247 252 256 254 262 261 262 267 271 274 275 276 278 280 282 284 287 290 291 293 294 294 293 291 291 291 291 291 290 289 290 289 290 290
220 228 225 226 232 235 239 243 242 244 254 258 257 260 265 267 270 272 273 274 276 279 282 285 288 290 292 294 294 292 291 291 290 290 290 291 291 291 292 292 292 292 292
223 232 234 227 227 230 236 240 244 247 254 259 261 262 264 267 269 271 273 276 279 282 286 287 289 292 294 293 292 291 290 291 292 293 293 293 293 292 292 292 292 292 292
232 235 241 236 236 238 246 250 254 256 258 260 262 264 266 268 271 273 276 279 282 284 287 291 293 293 292 291 290 290 291 292 294 295 295 295 296 296 296 295 294 294 294
237 240 249 254 255 257 256 258 257 257 258 260 262 265 269 272 274 275 277 281 285 288 290 292 291 289 289 289 290 291 293 293 294 295 296 298 297 298 298 298 298 296 293
237 235 237 243 246 248 249 252 255 258 261 264 265 268 269 271 273 277 281 283 285 289 289 288 286 286 287 289 292 294 296 297 298 299 300 301 302 302 301 298 295 294 294
243 243 243 246 246 247 250 254 256 259 261 264 265 268 271 274 276 277 283 287 288 287 284 283 284 285 289 292 295 297 299 300 301 302 303 303 302 299 296 296 297 299 301
243 245 245 247 249 251 253 256 258 260 263 266 268 271 271 273 281 284 286 284 282 279 281 282 284 288 293 297 299 300 301 302 303 305 304 301 298 297 299 300 301 303 304
237 241 244 246 250 253 257 259 259 260 263 264 266 272 278 281 283 282 280 277 277 281 282 284 288 293 297 300 301 302 303 304 305 303 300 298 299 300 300 300 302 305 309
241 241 242 245 247 250 251 252 256 261 269 272 276 280 281 281 278 276 276 276 280 283 285 290 295 298 300 302 302 303 304 303 299 297 298 298 298 299 300 302 305 309 312
258 254 254 254 257 260 265 268 271 274 276 278 279 278 276 270 272 276 278 280 285 289 293 296 299 301 302 302 303 302 301 298 296 298 299 300 300 300 300 302 305 308 312